This is the latest recevied weather packets stored in our database for station/object OE5XFR. If no packets are shown the sender has not sent any weather packets the latest 1 day(s).
| Time | Temp. | Humidity | Pressure | Rain* | Wind** | Luminosity | Snow |
|---|---|---|---|---|---|---|---|
| 1778082315 | 22.22° C | 32% | 1004 hPa | 0 mm | - | - | - |
| 1778078715 | 21.11° C | 37% | 1005 hPa | 0 mm | - | - | - |
| 1778077995 | 21.11° C | 37% | 1005 hPa | 0 mm | - | - | - |
| 1778076555 | 20.56° C | 39% | 1006 hPa | 0 mm | - | - | - |
| 1778070077 | 19.44° C | 40% | 1007 hPa | 0 mm | - | - | - |
| 1778069357 | 18.89° C | 42% | 1007 hPa | 0 mm | - | - | - |
| 1778067916 | 18.33° C | 47% | 1007 hPa | 0 mm | - | - | - |
| 1778067195 | 18.33° C | 46% | 1007 hPa | 0 mm | - | - | - |
| 1778065755 | 17.78° C | 48% | 1008 hPa | 0 mm | - | - | - |
| 1778065035 | 17.78° C | 47% | 1008 hPa | 0 mm | - | - | - |
| 1778064315 | 17.78° C | 47% | 1008 hPa | 0 mm | - | - | - |
| 1778063596 | 17.22° C | 52% | 1008 hPa | 0 mm | - | - | - |
| 1778062155 | 16.67° C | 53% | 1008 hPa | 0 mm | - | - | - |
| 1778061435 | 16.67° C | 52% | 1009 hPa | 0 mm | - | - | - |
| 1778060714 | 16.67° C | 52% | 1009 hPa | 0 mm | - | - | - |
| 1778059275 | 16.67° C | 53% | 1009 hPa | 0 mm | - | - | - |
| 1778057834 | 16.11° C | 48% | 1008 hPa | 0 mm | - | - | - |
| 1778057115 | 16.67° C | 48% | 1008 hPa | 0 mm | - | - | - |
| 1778055674 | 16.11° C | 52% | 1009 hPa | 0 mm | - | - | - |
| 1778054954 | 15.56° C | 59% | 1009 hPa | 0 mm | - | - | - |
| 1778054236 | 15° C | 62% | 1009 hPa | 0 mm | - | - | - |
| 1778053516 | 14.44° C | 65% | 1009 hPa | 0 mm | - | - | - |
| 1778052796 | 13.89° C | 70% | 1009 hPa | 0 mm | - | - | - |
| 1778052076 | 13.33° C | 76% | 1009 hPa | 0 mm | - | - | - |
| 1778051356 | 12.78° C | 88% | 1009 hPa | 0 mm | - | - | - |
* Rain latest hour (hover to see other rain measurements)
** Current wind speed in m/s (hover to see current wind gust speed)